ATLAS 41E DEB

Satellite information

Favourite Embed

Satellite Type and Status

DEBRISIN ORBIT

Key statistics

Satellite ATLAS 41E DEB at a glance.

Uptime

14886

Days in orbit

Revolutions

≈ 14.8

Per day

Orbit

SSO

Sun Synchronous Orbit

Inclination

108.2

Latest

Satellite identification and parameters

Extended collection of information and parameters for ATLAS 41E DEB.

Object identification

Identified? True

Debris? True

Object name: ATLAS 41E DEB

International designator: 1985-021D

Object number (NORAD): 15614

Object ID (CCSDS): 15614

Country: UNITED STATES OF AMERICA (US)

Current information (Y/N): Y

RCS size: SMALL

Orbital parameters

Period: 97.446 minutes

Inclination: 108.2224 deg

SMA: 7014.593 km

Apoapsis: 647.127 km

Periapsis: 625.789 km

RAAN: 79.4087 deg

Eccentricy: 0.00152093

Argument of periapsis: 264.8584 deg

Mean anomaly: 95.0842 deg

Mean motion: 14.77743475 rev/day

Mean motion (dot): 0.00003769 rev/day2

B* drag term: 0.00054798934 1/REarth

Two-line elements (TLE)

Creation date: Dec. 11, 2025, 10:54 a.m.

Reference frame: TEME

Reference center: EARTH

Epoch: Dec. 11, 2025, 5:05 a.m. UTC

TLE line 0: 0 ATLAS 41E DEB

TLE line 1: 1 15614U 85021D 25345.21198185 .00003769 00000-0 54799-3 0 9999

TLE line 2: 2 15614 108.2224 79.4087 0015209 264.8584 95.0842 14.77743475168908

Live tracking on map

Real-time ground track for satellite ATLAS 41E DEB.

In-orbit conjunctions

A list of the most updated potential collisions computed for object ATLAS 41E DEB.

Target Orbit TCA Probability of collision Miss distance Type
OKEAN O SSO 2025-05-22 00:53:43 0.0006878689 270.0 (m) PAYLOAD

Associated space launch

Oceanographic radar altimetry satellite designed to obtain mapping of the Earth's geoid

ATLAS 41E DEB was lifted into orbit during the mission ‘Atlas E/OIS | Geosat 1’, on board a Atlas E/OIS space rocket.

The launch took place on March 13, 1985, 2 a.m. from Space Launch Complex 3W.

For more information about the launch, click the button.

Launch to space Atlas E/OIS | Geosat 1
Atlas E/OIS | Geosat 1

Agency: N/A

Status: Launch Successful

Launch date: March 13, 1985, 2 a.m. UTC

Rocket: Atlas E/OIS

Launch pad: Space Launch Complex 3W

Location: Vandenberg SFB, CA, USA

...

Latest news about this satellite

There are no fresh news available about this satellite. Check back as we update our databases every day.


Newsletter sign-up

Weekly statistics, charts and insights to help you stay on top of the space industry.